Torna al catalogo

STARLINK-32789

AttivoComunicazioniVLEO
NORAD 62529·PAYLOAD·🇺🇸 United States

Lanciato Jan 8, 2025 da Cape Canaveral Space Force Station

Loading…

Prossimi Passaggi (prossime 24 ore)

TLE

AggiornatoSource: CelesTrak SupGP

Epoca: Sep 14, 2026, 22:47 UTC

1 62529C 25004U   26257.94979167  .00020693  00000+0  74957-3 0  2570
2 62529  42.9995 231.1353 0001034 255.7790  51.9022 15.27564894    16

Traccia STARLINK-32789 in tempo reale con AllMySat

Download on the App Store